SQ9IWE-13 Weather Reports


Display with metric or nautical units.
time (UTC)temp
F
wind
direction
speed
MPH
gust
MPH
rain 1hr
in
rain 24hr
in
rain mn
in
humidity
%
barometer
mb
20260902092001 80 0 0.0 0.0 0.00 0.00 0.00 50 1020.7
20260902091001 82 0 0.0 0.0 0.00 0.00 0.00 50 1020.8
20260902090001 80 0 0.0 0.0 0.00 0.00 0.00 50 1020.8
20260902084001 80 0 0.0 0.0 0.00 0.00 0.00 50 1020.8
20260902083001 84 0 0.0 0.0 0.00 0.00 0.00 47 1020.8
20260902082001 84 0 0.0 0.0 0.00 0.00 0.00 47 1021.0
20260902081001 83 0 0.0 0.0 0.00 0.00 0.00 49 1021.0
20260902080001 82 0 0.0 0.0 0.00 0.00 0.00 50 1020.9
20260902075001 79 0 0.0 0.0 0.00 0.00 0.00 51 1020.9
20260902074001 78 0 0.0 0.0 0.00 0.00 0.00 53 1020.9
20260902073001 76 0 0.0 0.0 0.00 0.00 0.00 54 1020.9
20260902072001 75 0 0.0 0.0 0.00 0.00 0.00 56 1020.9
20260902071000 73 0 0.0 0.0 0.00 0.00 0.00 59 1020.9
20260902070001 8 0 0.0 0.0 0.00 0.00 0.00 6 21.2
20260902065000 69 0 0.0 0.0 0.00 0.00 0.00 63 1020.7
20260902064000 66 0 0.0 0.0 0.00 0.00 0.00 68 1020.6
20260902063000 66 0 0.0 0.0 0.00 0.00 0.00 70 1020.7
20260902062000 65 0 0.0 0.0 0.00 0.00 0.00 70 1020.5
20260902061000 64 0 0.0 0.0 0.00 0.00 0.00 70 1020.5
20260902060000 63 0 0.0 0.0 0.00 0.00 0.00 72 1020.5
20260902055000 63 0 0.0 0.0 0.00 0.00 0.00 72 1020.7
20260902054000 63 0 0.0 0.0 0.00 0.00 0.00 72 1020.6
20260902053000 63 0 0.0 0.0 0.00 0.00 0.00 72 1020.6
20260902052000 63 0 0.0 0.0 0.00 0.00 0.00 72 1020.6
20260902051001 62 0 0.0 0.0 0.00 0.00 0.00 78 1020.5
20260902050002 57 0 0.0 0.0 0.00 0.00 0.00 85 1020.6
20260902045001 56 0 0.0 0.0 0.00 0.00 0.00 88 1020.4
20260902043001 54 0 0.0 0.0 0.00 0.00 0.00 91 4266.5
20260902042001 53 0 0.0 0.0 0.00 0.00 0.00 92 1020.4
20260902041001 53 0 0.0 0.0 0.00 0.00 0.00 92 1020.5
20260902040001 53 0 0.0 0.0 0.00 0.00 0.00 92 1020.4
20260902035001 53 0 0.0 0.0 0.00 0.00 0.00 93 1020.4
20260902034001 53 0 0.0 0.0 0.00 0.00 0.00 93 1020.3
20260902033001 53 0 0.0 0.0 0.00 0.00 0.00 93 1020.3
20260902032001 54 0 0.0 0.0 0.00 0.00 0.00 93 1020.2
20260902031001 54 0 0.0 0.0 0.00 0.00 0.00 93 1020.3
20260902030001 54 0 0.0 0.0 0.00 0.00 0.00 92 1020.2
20260902025001 54 0 0.0 0.0 0.00 0.00 0.00 92 1020.3
20260902023001 55 0 0.0 0.0 0.00 0.00 0.00 92 1020.4
20260902022001 55 0 0.0 0.0 0.00 0.00 0.00 92 1020.3
20260902020001 55 0 0.0 0.0 0.00 0.00 0.00 92 1020.3
20260902015001 55 0 0.0 0.0 0.00 0.00 0.00 92 1020.4
20260902014001 55 0 0.0 0.0 0.00 0.00 0.00 92 1020.5
20260902013001 55 0 0.0 0.0 0.00 0.00 0.00 92 1020.3
20260902012000 55 0 0.0 0.0 0.00 0.00 0.00 91 1020.5
20260902011000 55 0 0.0 0.0 0.00 0.00 0.00 91 1020.4
20260902010000 55 0 0.0 0.0 0.00 0.00 0.00 91 1020.3
20260902005000 56 0 0.0 0.0 0.00 0.00 0.00 90 1020.4
20260902004000 56 0 0.0 0.0 0.00 0.00 0.00 91 1020.3
20260902003000 56 0 0.0 0.0 0.00 0.00 0.00 90 1020.3
20260902002000 56 0 0.0 0.0 0.00 0.00 0.00 90 1020.3
20260902001000 56 0 0.0 0.0 0.00 0.00 0.00 90 1020.3
20260902000000 56 0 0.0 0.0 0.00 0.00 0.00 90 1020.3
20260901235000 56 0 0.0 0.0 0.00 0.00 0.00 89 1020.3
20260901234001 57 0 0.0 0.0 0.00 0.00 0.00 89 1020.3
20260901233001 57 0 0.0 0.0 0.00 0.00 0.00 89 1020.2
20260901232001 57 0 0.0 0.0 0.00 0.00 0.00 89 1020.3
20260901231001 57 0 0.0 0.0 0.00 0.00 0.00 89 1020.2
20260901230001 57 0 0.0 0.0 0.00 0.00 0.00 90 1020.2
20260901225001 57 0 0.0 0.0 0.00 0.00 0.00 90 1020.1
20260901224001 57 0 0.0 0.0 0.00 0.00 0.00 89 1020.2
20260901223001 57 0 0.0 0.0 0.00 0.00 0.00 90 1020.2
20260901222001 8 0 0.0 0.0 0.00 0.00 0.00 89 14.5
20260901221001 58 0 0.0 0.0 0.00 0.00 0.00 89 1020.1
20260901220001 58 0 0.0 0.0 0.00 0.00 0.00 88 1020.1
20260901215001 58 0 0.0 0.0 0.00 0.00 0.00 88 1020.1
20260901214001 58 0 0.0 0.0 0.00 0.00 0.00 87 1020.1
20260901213001 59 0 0.0 0.0 0.00 0.00 0.00 87 1020.1
20260901212001 59 0 0.0 0.0 0.00 0.00 0.00 86 1020.1
20260901211001 59 0 0.0 0.0 0.00 0.00 0.00 86 1020.2
20260901210001 59 0 0.0 0.0 0.00 0.00 0.00 85 1020.1
20260901205001 60 0 0.0 0.0 0.00 0.00 0.00 83 1020.1
20260901204001 60 0 0.0 0.0 0.00 0.00 0.00 82 1020.0
20260901203001 61 0 0.0 0.0 0.00 0.00 0.00 80 1020.0
20260901202001 61 0 0.0 0.0 0.00 0.00 0.00 80 1020.1
20260901201001 61 0 0.0 0.0 0.00 0.00 0.00 79 1020.0
20260901200001 61 0 0.0 0.0 0.00 0.00 0.00 78 1019.9
20260901195001 61 0 0.0 0.0 0.00 0.00 0.00 78 1020.0
20260901194001 61 0 0.0 0.0 0.00 0.00 0.00 77 1020.0
20260901193001 62 0 0.0 0.0 0.00 0.00 0.00 76 1019.9
20260901192001 62 0 0.0 0.0 0.00 0.00 0.00 76 1019.9
20260901191001 62 0 0.0 0.0 0.00 0.00 0.00 75 1019.8
20260901190001 63 0 0.0 0.0 0.00 0.00 0.00 74 1020.0
20260901185000 63 0 0.0 0.0 0.00 0.00 0.00 72 1020.0
20260901184000 64 0 0.0 0.0 0.00 0.00 0.00 71 1019.9
20260901183000 64 0 0.0 0.0 0.00 0.00 0.00 70 1020.0
20260901182000 64 0 0.0 0.0 0.00 0.00 0.00 70 1019.8
20260901181000 65 0 0.0 0.0 0.00 0.00 0.00 69 1019.6
20260901180000 65 0 0.0 0.0 0.00 0.00 0.00 68 1019.6
20260901175000 66 0 0.0 0.0 0.00 0.00 0.00 67 1019.5
20260901174000 66 0 0.0 0.0 0.00 0.00 0.00 66 1019.5
20260901172000 68 0 0.0 0.0 0.00 0.00 0.00 65 1019.3
20260901171000 68 0 0.0 0.0 0.00 0.00 0.00 63 1019.2
20260901170000 69 0 0.0 0.0 0.00 0.00 0.00 61 1019.1
20260901165000 70 0 0.0 0.0 0.00 0.00 0.00 61 1019.2
20260901164001 70 0 0.0 0.0 0.00 0.00 0.00 61 1019.1
20260901163001 71 0 0.0 0.0 0.00 0.00 0.00 60 1019.1
20260901162001 71 0 0.0 0.0 0.00 0.00 0.00 60 1019.1
20260901161001 71 0 0.0 0.0 0.00 0.00 0.00 60 1019.1
20260901160001 71 0 0.0 0.0 0.00 0.00 0.00 60 1019.0
20260901155001 72 0 0.0 0.0 0.00 0.00 0.00 60 1019.0
20260901154001 72 0 0.0 0.0 0.00 0.00 0.00 60 1019.1
20260901153001 72 0 0.0 0.0 0.00 0.00 0.00 60 1019.0
20260901152001 72 0 0.0 0.0 0.00 0.00 0.00 59 1018.9
20260901151001 73 0 0.0 0.0 0.00 0.00 0.00 59 1018.9
20260901150001 73 0 0.0 0.0 0.00 0.00 0.00 58 1018.8
20260901145001 73 0 0.0 0.0 0.00 0.00 0.00 58 1018.9
20260901144001 74 0 0.0 0.0 0.00 0.00 0.00 57 1018.7
20260901143001 74 0 0.0 0.0 0.00 0.00 0.00 57 1018.8
20260901142001 73 0 0.0 0.0 0.00 0.00 0.00 56 1018.8
20260901140001 74 0 0.0 0.0 0.00 0.00 0.00 54 1018.8
20260901135001 74 0 0.0 0.0 0.00 0.00 0.00 55 1018.8
20260901134001 74 0 0.0 0.0 0.00 0.00 0.00 55 1018.8
20260901133001 74 0 0.0 0.0 0.00 0.00 0.00 55 1018.8
20260901132001 75 0 0.0 0.0 0.00 0.00 0.00 55 1018.9
20260901131001 75 0 0.0 0.0 0.00 0.00 0.00 55 1018.9
20260901130001 76 0 0.0 0.0 0.00 0.00 0.00 54 1018.9
20260901125001 76 0 0.0 0.0 0.00 0.00 0.00 53 1018.8
20260901124001 75 0 0.0 0.0 0.00 0.00 0.00 53 1018.9
20260901123001 76 0 0.0 0.0 0.00 0.00 0.00 52 1018.7
20260901122001 77 0 0.0 0.0 0.00 0.00 0.00 52 1018.8
20260901121001 78 0 0.0 0.0 0.00 0.00 0.00 51 1018.8
20260901120001 80 0 0.0 0.0 0.00 0.00 0.00 49 1018.9
20260901115001 80 0 0.0 0.0 0.00 0.00 0.00 50 1018.7
20260901114001 795 0 0.0 0.0 0.00 0.00 0.00 50 50.4
20260901113001 80 0 0.0 0.0 0.00 0.00 0.00 50 1018.8
20260901112001 79 0 0.0 0.0 0.00 0.00 0.00 49 1018.7
20260901111000 78 0 0.0 0.0 0.00 0.00 0.00 50 1018.9
20260901110000 81 0 0.0 0.0 0.00 0.00 0.00 48 1018.8
20260901105000 77 0 0.0 0.0 0.00 0.00 0.00 53 1018.7
20260901104000 77 0 0.0 0.0 0.00 0.00 0.00 52 1018.8
20260901103000 75 0 0.0 0.0 0.00 0.00 0.00 53 1018.8
20260901102000 76 0 0.0 0.0 0.00 0.00 0.00 52 1018.7
20260901101000 80 0 0.0 0.0 0.00 0.00 0.00 48 1018.7
20260901100000 84 0 0.0 0.0 0.00 0.00 0.00 46 1018.7
20260901095001 82 0 0.0 0.0 0.00 0.00 0.00 48 1018.5
20260901094001 82 0 0.0 0.0 0.00 0.00 0.00 47 1018.5
20260901093001 79 0 0.0 0.0 0.00 0.00 0.00 54 1018.6